{"data":{"norad_id":62315,"intl_designator":"2024-239Q","name":"STARLINK-32627","alt_names":[],"object_type":"PAYLOAD","status":"ACTIVE","operator":null,"country":"US","launch_date":"2024-12-13","launch_site_code":"AFWTR","launch_vehicle":null,"mission":null,"orbit_class":"UNKNOWN","rcs_meters":null,"size_class":null,"mass_kg":null,"dimensions":null,"purposes":["comms"],"wikipedia_slug":null,"has_3d_model":false,"image_url":null,"decayed_at":null,"tle_current":{"epoch":"2026-05-25T03:09:28.088640Z","epoch_age_seconds":67692,"freshness":"FRESH","line1":"1 62315U 24239Q   26145.13157510  .00010470  00000+0  36510-3 0  9997","line2":"2 62315  53.1597 199.0826 0001290  80.8885 279.2261 15.30201676 81080","mean_motion":15.30201676,"eccentricity":0.000129,"inclination_deg":53.1597,"raan_deg":199.0826,"arg_perigee_deg":80.8885,"mean_anomaly_deg":279.2261,"bstar":0.0003651,"rev_number":8108,"period_min":94.105242634697,"perigee_km":474.32598341858,"apogee_km":476.0941469614,"semimajor_km":6853.34706519,"source":"CELESTRAK","updated_at":"2026-05-25T13:38:19.650157Z"}}}